| time (UTC) | temp F | wind direction | speed MPH | gust MPH | rain 1hr in | rain 24hr in | rain mn in | humidity % | barometer mb |
| 20260901114628 | 80 | 321 | 0.0 | 0.0 | 0.00 | 0.20 | 0.20 | 99 | 1016.8 |
| 20260901114126 | 79 | 310 | 0.0 | 0.0 | 0.00 | 0.20 | 0.20 | 99 | 1016.7 |
| 20260901113625 | 78 | 333 | 1.0 | 1.0 | 0.00 | 0.20 | 0.20 | 99 | 1016.7 |
| 20260901113121 | 78 | 305 | 0.0 | 0.0 | 0.00 | 0.20 | 0.20 | 99 | 1016.6 |
| 20260901112621 | 78 | 305 | 0.0 | 0.0 | 0.00 | 0.20 | 0.20 | 99 | 1016.5 |
| 20260901112115 | 78 | 305 | 0.0 | 0.0 | 0.05 | 0.20 | 0.20 | 99 | 1016.4 |
| 20260901111614 | 78 | 320 | 0.0 | 0.0 | 0.05 | 0.20 | 0.20 | 99 | 1016.2 |
| 20260901111113 | 78 | 319 | 0.0 | 0.0 | 0.00 | 0.19 | 0.19 | 99 | 1016.3 |
| 20260901110609 | 78 | 319 | 0.0 | 0.0 | 0.00 | 0.19 | 0.19 | 99 | 1016.1 |
| 20260901110105 | 78 | 320 | 0.0 | 0.0 | 0.00 | 0.19 | 0.19 | 99 | 1016.2 |
| 20260901105601 | 78 | 319 | 0.0 | 0.0 | 0.00 | 0.19 | 0.19 | 99 | 1016.2 |
| 20260901105100 | 78 | 319 | 0.0 | 0.0 | 0.00 | 0.19 | 0.19 | 99 | 1016.2 |
| 20260901104557 | 78 | 319 | 0.0 | 0.0 | 0.00 | 0.19 | 0.19 | 99 | 1016.1 |
| 20260901104052 | 78 | 319 | 0.0 | 0.0 | 0.00 | 0.19 | 0.19 | 99 | 1016.0 |
| 20260901103551 | 78 | 319 | 0.0 | 0.0 | 0.00 | 0.19 | 0.19 | 99 | 1016.0 |
| 20260901103047 | 78 | 319 | 0.0 | 0.0 | 0.00 | 0.19 | 0.19 | 99 | 1016.0 |
| 20260901102546 | 78 | 319 | 0.0 | 0.0 | 0.00 | 0.19 | 0.19 | 99 | 1015.9 |
| 20260901102041 | 78 | 319 | 0.0 | 0.0 | 0.00 | 0.19 | 0.19 | 99 | 1016.0 |
| 20260901101537 | 78 | 319 | 0.0 | 0.0 | 0.00 | 0.19 | 0.19 | 99 | 1016.1 |
| 20260901101037 | 78 | 319 | 0.0 | 0.0 | 0.00 | 0.19 | 0.19 | 99 | 1016.0 |
| 20260901100536 | 78 | 319 | 0.0 | 0.0 | 0.00 | 0.19 | 0.19 | 99 | 1016.1 |
| 20260901100031 | 78 | 320 | 0.0 | 0.0 | 0.00 | 0.19 | 0.19 | 99 | 1016.0 |
| 20260901095529 | 78 | 320 | 0.0 | 0.0 | 0.00 | 0.19 | 0.19 | 99 | 1016.1 |
| 20260901095027 | 78 | 320 | 0.0 | 0.0 | 0.00 | 0.19 | 0.19 | 99 | 1015.9 |
| 20260901094522 | 78 | 319 | 0.0 | 0.0 | 0.00 | 0.19 | 0.19 | 99 | 1016.1 |
| 20260901094021 | 78 | 319 | 0.0 | 0.0 | 0.00 | 0.19 | 0.19 | 99 | 1016.0 |
| 20260901093516 | 78 | 319 | 0.0 | 0.0 | 0.00 | 0.19 | 0.19 | 99 | 1016.0 |
| 20260901093011 | 78 | 320 | 0.0 | 0.0 | 0.00 | 0.19 | 0.19 | 99 | 1015.8 |
| 20260901092508 | 78 | 320 | 0.0 | 0.0 | 0.00 | 0.19 | 0.19 | 99 | 1015.9 |
| 20260901092003 | 78 | 320 | 0.0 | 0.0 | 0.00 | 0.19 | 0.19 | 99 | 1015.9 |
| 20260901091458 | 78 | 320 | 0.0 | 0.0 | 0.00 | 0.19 | 0.19 | 99 | 1015.9 |
| 20260901090952 | 78 | 320 | 0.0 | 0.0 | 0.00 | 0.19 | 0.19 | 99 | 1016.2 |
| 20260901090452 | 78 | 321 | 0.0 | 0.0 | 0.00 | 0.19 | 0.19 | 99 | 1016.0 |
| 20260901085948 | 78 | 321 | 0.0 | 0.0 | 0.00 | 0.19 | 0.19 | 99 | 1016.0 |
| 20260901085443 | 78 | 320 | 0.0 | 0.0 | 0.00 | 0.19 | 0.19 | 99 | 1015.9 |
| 20260901084940 | 78 | 319 | 0.0 | 0.0 | 0.00 | 0.19 | 0.19 | 99 | 1016.1 |
| 20260901084436 | 79 | 319 | 0.0 | 0.0 | 0.00 | 0.19 | 0.19 | 99 | 1015.8 |
| 20260901083931 | 79 | 325 | 0.0 | 0.0 | 0.00 | 0.19 | 0.19 | 99 | 1015.9 |
| 20260901083431 | 79 | 325 | 0.0 | 0.0 | 0.00 | 0.19 | 0.19 | 99 | 1015.8 |
| 20260901082929 | 79 | 326 | 0.0 | 0.0 | 0.00 | 0.19 | 0.19 | 99 | 1016.0 |
| 20260901082425 | 79 | 346 | 0.0 | 0.0 | 0.00 | 0.19 | 0.19 | 99 | 1015.9 |
| 20260901081920 | 79 | 335 | 0.0 | 0.0 | 0.00 | 0.19 | 0.19 | 99 | 1015.6 |
| 20260901081414 | 79 | 332 | 0.0 | 0.0 | 0.00 | 0.19 | 0.19 | 99 | 1015.7 |
| 20260901080910 | 79 | 332 | 0.0 | 0.0 | 0.00 | 0.19 | 0.19 | 99 | 1016.0 |
| 20260901080404 | 79 | 333 | 0.0 | 0.0 | 0.00 | 0.19 | 0.19 | 99 | 1016.0 |
| 20260901075904 | 79 | 324 | 0.0 | 0.0 | 0.00 | 0.19 | 0.19 | 99 | 1015.9 |
| 20260901075359 | 79 | 313 | 0.0 | 0.0 | 0.00 | 0.19 | 0.19 | 99 | 1015.9 |
| 20260901074853 | 79 | 313 | 0.0 | 0.0 | 0.00 | 0.19 | 0.19 | 99 | 1016.1 |
| 20260901074348 | 79 | 313 | 0.0 | 0.0 | 0.00 | 0.19 | 0.19 | 99 | 1016.3 |
| 20260901073843 | 79 | 314 | 0.0 | 0.0 | 0.00 | 0.19 | 0.19 | 99 | 1016.0 |
| 20260901073339 | 79 | 311 | 0.0 | 0.0 | 0.00 | 0.19 | 0.19 | 99 | 1016.2 |
| 20260901072835 | 79 | 311 | 0.0 | 0.0 | 0.00 | 0.19 | 0.19 | 99 | 1016.0 |
| 20260901072335 | 79 | 312 | 0.0 | 0.0 | 0.00 | 0.19 | 0.19 | 99 | 1016.1 |
| 20260901071830 | 79 | 312 | 0.0 | 0.0 | 0.00 | 0.19 | 0.19 | 99 | 1016.4 |
| 20260901071328 | 79 | 303 | 0.0 | 0.0 | 0.00 | 0.19 | 0.19 | 99 | 1016.4 |
| 20260901070827 | 80 | 303 | 0.0 | 0.0 | 0.00 | 0.19 | 0.19 | 99 | 1016.4 |
| 20260901070323 | 80 | 303 | 0.0 | 0.0 | 0.00 | 0.19 | 0.19 | 99 | 1016.6 |
| 20260901065822 | 80 | 302 | 0.0 | 0.0 | 0.00 | 0.19 | 0.19 | 99 | 1016.5 |
| 20260901065317 | 80 | 306 | 0.0 | 0.0 | 0.00 | 0.19 | 0.19 | 99 | 1016.6 |
| 20260901064813 | 80 | 321 | 0.0 | 0.0 | 0.07 | 0.19 | 0.19 | 99 | 1016.5 |
| 20260901064309 | 80 | 345 | 1.0 | 1.0 | 0.07 | 0.19 | 0.19 | 99 | 1016.8 |
| 20260901063807 | 80 | 277 | 1.0 | 1.0 | 0.00 | 0.18 | 0.18 | 99 | 1016.8 |
| 20260901063303 | 80 | 267 | 0.0 | 0.0 | 0.00 | 0.18 | 0.18 | 99 | 1016.9 |
| 20260901062758 | 80 | 293 | 0.0 | 0.0 | 0.00 | 0.18 | 0.18 | 99 | 1016.9 |
| 20260901062254 | 80 | 293 | 0.0 | 0.0 | 0.00 | 0.18 | 0.18 | 99 | 1016.7 |
| 20260901061749 | 80 | 293 | 0.0 | 0.0 | 0.00 | 0.18 | 0.18 | 99 | 1016.8 |
| 20260901061249 | 80 | 292 | 0.0 | 0.0 | 0.00 | 0.18 | 0.18 | 99 | 1016.9 |
| 20260901060744 | 80 | 308 | 0.0 | 0.0 | 0.00 | 0.18 | 0.18 | 99 | 1017.1 |
| 20260901060240 | 80 | 332 | 0.0 | 0.0 | 0.00 | 0.18 | 0.18 | 99 | 1017.0 |
| 20260901055735 | 80 | 316 | 0.0 | 0.0 | 0.05 | 0.18 | 0.18 | 99 | 1017.0 |
| 20260901055232 | 80 | 296 | 1.0 | 1.0 | 0.31 | 0.18 | 0.18 | 99 | 1017.0 |
| 20260901054728 | 80 | 300 | 0.0 | 0.0 | 0.85 | 0.17 | 0.17 | 99 | 1017.2 |
| 20260901054225 | 80 | 201 | 2.0 | 2.0 | 0.78 | 0.13 | 0.13 | 99 | 1017.3 |
| 20260901053720 | 80 | 163 | 6.0 | 7.0 | 0.14 | 0.02 | 0.02 | 99 | 1017.3 |
| 20260901053216 | 80 | 134 | 5.0 | 7.0 | 0.00 | 0.00 | 0.00 | 99 | 1017.4 |
| 20260901052711 | 80 | 313 | 0.0 | 0.0 | 0.00 | 0.00 | 0.00 | 99 | 1017.4 |
| 20260901052207 | 80 | 312 | 0.0 | 0.0 | 0.00 | 0.00 | 0.00 | 99 | 1017.4 |
| 20260901051705 | 80 | 312 | 0.0 | 0.0 | 0.00 | 0.00 | 0.00 | 99 | 1017.4 |
| 20260901051205 | 80 | 313 | 0.0 | 0.0 | 0.00 | 0.00 | 0.00 | 99 | 1017.5 |
| 20260901050701 | 80 | 312 | 0.0 | 0.0 | 0.00 | 0.00 | 0.00 | 99 | 1017.5 |
| 20260901050155 | 80 | 313 | 0.0 | 0.0 | 0.00 | 0.00 | 0.00 | 99 | 1017.6 |
| 20260901045650 | 80 | 312 | 0.0 | 0.0 | 0.00 | 0.00 | 0.00 | 99 | 1017.6 |
| 20260901045145 | 80 | 312 | 0.0 | 0.0 | 0.00 | 0.00 | 0.00 | 99 | 1017.6 |
| 20260901044640 | 80 | 312 | 0.0 | 0.0 | 0.00 | 0.00 | 0.00 | 99 | 1017.5 |
| 20260901044137 | 80 | 312 | 0.0 | 0.0 | 0.00 | 0.00 | 0.00 | 99 | 1017.8 |
| 20260901043632 | 80 | 313 | 0.0 | 0.0 | 0.00 | 0.00 | 0.00 | 99 | 1017.6 |
| 20260901043128 | 80 | 313 | 0.0 | 0.0 | 0.00 | 0.00 | 0.00 | 99 | 1017.7 |
| 20260901042626 | 80 | 312 | 0.0 | 0.0 | 0.00 | 0.00 | 0.00 | 99 | 1017.6 |
| 20260901042122 | 80 | 302 | 0.0 | 0.0 | 0.00 | 0.00 | 0.00 | 99 | 1017.7 |
| 20260901041618 | 80 | 301 | 0.0 | 0.0 | 0.00 | 0.00 | 0.00 | 99 | 1017.5 |
| 20260901041112 | 80 | 303 | 0.0 | 0.0 | 0.00 | 0.00 | 0.00 | 99 | 1017.7 |
| 20260901040612 | 80 | 310 | 0.0 | 0.0 | 0.00 | 0.00 | 0.00 | 99 | 1017.8 |
| 20260901040106 | 80 | 310 | 0.0 | 0.0 | 0.00 | 0.00 | 0.00 | 99 | 1017.6 |
| 20260901035604 | 80 | 313 | 0.0 | 0.0 | 0.00 | 0.04 | 0.04 | 99 | 1017.6 |
| 20260901035103 | 80 | 313 | 0.0 | 0.0 | 0.00 | 0.04 | 0.04 | 99 | 1017.7 |
| 20260901034603 | 81 | 313 | 0.0 | 0.0 | 0.00 | 0.04 | 0.04 | 99 | 1017.7 |
| 20260901034058 | 80 | 311 | 0.0 | 0.0 | 0.00 | 0.04 | 0.04 | 99 | 1017.7 |
| 20260901033556 | 80 | 303 | 0.0 | 0.0 | 0.00 | 0.04 | 0.04 | 99 | 1017.7 |
| 20260901033051 | 81 | 304 | 0.0 | 0.0 | 0.00 | 0.04 | 0.04 | 99 | 1017.7 |
| 20260901032549 | 81 | 310 | 0.0 | 0.0 | 0.05 | 0.04 | 0.04 | 99 | 1017.6 |
| 20260901032045 | 81 | 310 | 0.0 | 0.0 | 0.05 | 0.04 | 0.04 | 99 | 1017.8 |
| 20260901031541 | 81 | 309 | 0.0 | 0.0 | 0.00 | 0.03 | 0.03 | 99 | 1017.7 |
| 20260901031036 | 81 | 191 | 2.0 | 2.0 | 0.00 | 0.03 | 0.03 | 99 | 1018.0 |
| 20260901030536 | 80 | 310 | 0.0 | 0.0 | 0.00 | 0.03 | 0.03 | 99 | 1017.7 |
| 20260901030031 | 80 | 310 | 0.0 | 0.0 | 0.00 | 0.03 | 0.03 | 99 | 1018.0 |
| 20260901025525 | 80 | 311 | 0.0 | 0.0 | 0.00 | 0.03 | 0.03 | 99 | 1018.0 |
| 20260901025024 | 80 | 311 | 0.0 | 0.0 | 0.00 | 0.03 | 0.03 | 99 | 1017.8 |
| 20260901024520 | 80 | 311 | 0.0 | 0.0 | 0.00 | 0.03 | 0.03 | 99 | 1018.0 |
| 20260901024019 | 80 | 311 | 0.0 | 0.0 | 0.00 | 0.03 | 0.03 | 99 | 1017.9 |
| 20260901023513 | 80 | 310 | 0.0 | 0.0 | 0.00 | 0.03 | 0.03 | 99 | 1017.9 |
| 20260901023008 | 80 | 310 | 0.0 | 0.0 | 0.00 | 0.03 | 0.03 | 99 | 1017.9 |
| 20260901022503 | 80 | 310 | 0.0 | 0.0 | 0.00 | 0.03 | 0.03 | 99 | 1017.9 |
| 20260901021958 | 80 | 317 | 0.0 | 0.0 | 0.00 | 0.03 | 0.03 | 99 | 1017.8 |
| 20260901021453 | 80 | 317 | 0.0 | 0.0 | 0.00 | 0.03 | 0.03 | 99 | 1017.9 |
| 20260901020949 | 80 | 318 | 0.0 | 0.0 | 0.00 | 0.03 | 0.03 | 99 | 1017.8 |
| 20260901020444 | 80 | 317 | 0.0 | 0.0 | 0.00 | 0.03 | 0.03 | 99 | 1017.7 |
| 20260901015943 | 80 | 315 | 0.0 | 0.0 | 0.00 | 0.03 | 0.03 | 99 | 1017.7 |
| 20260901015440 | 80 | 306 | 0.0 | 0.0 | 0.00 | 0.03 | 0.03 | 99 | 1017.7 |
| 20260901014939 | 80 | 307 | 0.0 | 0.0 | 0.00 | 0.03 | 0.03 | 99 | 1017.6 |
| 20260901014435 | 80 | 306 | 0.0 | 0.0 | 0.00 | 0.03 | 0.03 | 99 | 1017.4 |
| 20260901013930 | 80 | 306 | 0.0 | 0.0 | 0.00 | 0.03 | 0.03 | 99 | 1017.4 |
| 20260901013426 | 81 | 307 | 0.0 | 0.0 | 0.00 | 0.03 | 0.03 | 99 | 1017.5 |
| 20260901012921 | 81 | 307 | 0.0 | 0.0 | 0.00 | 0.03 | 0.03 | 99 | 1017.3 |
| 20260901012416 | 80 | 303 | 0.0 | 0.0 | 0.00 | 0.03 | 0.03 | 99 | 1017.3 |
| 20260901011912 | 81 | 303 | 0.0 | 0.0 | 0.00 | 0.03 | 0.03 | 99 | 1017.1 |
| 20260901011408 | 81 | 303 | 0.0 | 0.0 | 0.00 | 0.03 | 0.03 | 99 | 1017.2 |
| 20260901010906 | 81 | 304 | 0.0 | 0.0 | 0.00 | 0.03 | 0.03 | 99 | 1017.1 |
| 20260901010401 | 81 | 303 | 0.0 | 0.0 | 0.00 | 0.03 | 0.03 | 99 | 1017.1 |
| 20260901005859 | 81 | 303 | 0.0 | 0.0 | 0.00 | 0.03 | 0.03 | 99 | 1017.2 |
| 20260901005355 | 81 | 303 | 0.0 | 0.0 | 0.00 | 0.03 | 0.03 | 99 | 1017.2 |
| 20260901004850 | 81 | 303 | 0.0 | 0.0 | 0.00 | 0.03 | 0.03 | 99 | 1017.0 |
| 20260901004349 | 81 | 303 | 0.0 | 0.0 | 0.00 | 0.03 | 0.03 | 99 | 1017.0 |
| 20260901003844 | 81 | 302 | 0.0 | 0.0 | 0.00 | 0.03 | 0.03 | 99 | 1017.0 |
| 20260901003339 | 81 | 301 | 0.0 | 0.0 | 0.00 | 0.03 | 0.03 | 99 | 1016.9 |
| 20260901002837 | 81 | 301 | 0.0 | 0.0 | 0.00 | 0.03 | 0.03 | 99 | 1017.1 |
| 20260901002337 | 81 | 302 | 0.0 | 0.0 | 0.00 | 0.03 | 0.03 | 99 | 1017.1 |
| 20260901001832 | 82 | 322 | 0.0 | 0.0 | 0.00 | 0.03 | 0.03 | 99 | 1016.8 |
| 20260901001327 | 81 | 322 | 0.0 | 0.0 | 0.00 | 0.03 | 0.03 | 99 | 1016.8 |
| 20260901000823 | 82 | 329 | 0.0 | 0.0 | 0.00 | 0.03 | 0.03 | 99 | 1016.6 |
| 20260901000318 | 82 | 330 | 0.0 | 0.0 | 0.00 | 0.03 | 0.03 | 99 | 1016.8 |
| 20260831235816 | 82 | 313 | 0.0 | 0.0 | 0.00 | 0.03 | 0.03 | 99 | 1016.7 |
| 20260831235312 | 82 | 294 | 0.0 | 0.0 | 0.00 | 0.03 | 0.03 | 99 | 1016.9 |
| 20260831234807 | 82 | 296 | 0.0 | 0.0 | 0.00 | 0.03 | 0.03 | 99 | 1017.0 |
| 20260831234307 | 82 | 296 | 0.0 | 0.0 | 0.00 | 0.03 | 0.03 | 99 | 1017.1 |
| 20260831233803 | 82 | 295 | 0.0 | 0.0 | 0.00 | 0.03 | 0.03 | 99 | 1016.9 |
| 20260831233258 | 83 | 294 | 0.0 | 0.0 | 0.00 | 0.03 | 0.03 | 99 | 1016.7 |
| 20260831232752 | 83 | 302 | 0.0 | 0.0 | 0.00 | 0.03 | 0.03 | 98 | 1016.8 |
| 20260831232249 | 83 | 310 | 0.0 | 0.0 | 0.00 | 0.03 | 0.03 | 98 | 1016.8 |
| 20260831231744 | 83 | 347 | 2.0 | 2.0 | 0.00 | 0.03 | 0.03 | 98 | 1016.5 |
| 20260831231241 | 83 | 326 | 0.0 | 0.0 | 0.00 | 0.03 | 0.03 | 98 | 1016.7 |
| 20260831230736 | 83 | 316 | 0.0 | 0.0 | 0.00 | 0.03 | 0.03 | 98 | 1016.7 |
| 20260831230231 | 83 | 300 | 0.0 | 0.0 | 0.00 | 0.03 | 0.03 | 98 | 1016.6 |
| 20260831225730 | 83 | 290 | 0.0 | 0.0 | 0.00 | 0.03 | 0.03 | 98 | 1016.8 |
| 20260831225226 | 83 | 290 | 0.0 | 0.0 | 0.00 | 0.03 | 0.03 | 98 | 1016.8 |
| 20260831224720 | 83 | 297 | 0.0 | 0.0 | 0.00 | 0.03 | 0.03 | 97 | 1016.7 |
| 20260831224216 | 83 | 332 | 0.0 | 0.0 | 0.00 | 0.03 | 0.03 | 98 | 1016.8 |
| 20260831223711 | 83 | 327 | 0.0 | 0.0 | 0.00 | 0.03 | 0.03 | 98 | 1016.7 |
| 20260831223208 | 83 | 355 | 0.0 | 1.0 | 0.00 | 0.03 | 0.03 | 98 | 1016.6 |
| 20260831222703 | 83 | 322 | 0.0 | 0.0 | 0.00 | 0.03 | 0.03 | 98 | 1016.4 |
| 20260831222158 | 83 | 347 | 0.0 | 0.0 | 0.00 | 0.03 | 0.03 | 98 | 1016.6 |
| 20260831221648 | 83 | 327 | 0.0 | 0.0 | 0.00 | 0.03 | 0.03 | 98 | 1016.4 |
| 20260831221143 | 83 | 331 | 0.0 | 0.0 | 0.00 | 0.03 | 0.03 | 98 | 1016.6 |
| 20260831220638 | 83 | 331 | 1.0 | 1.0 | 0.00 | 0.03 | 0.03 | 98 | 1016.6 |
| 20260831220133 | 83 | 312 | 0.0 | 0.0 | 0.00 | 0.03 | 0.03 | 98 | 1016.7 |
| 20260831215629 | 82 | 344 | 0.0 | 0.0 | 0.00 | 0.03 | 0.03 | 98 | 1016.9 |
| 20260831215124 | 82 | 323 | 0.0 | 0.0 | 0.00 | 0.03 | 0.03 | 98 | 1016.8 |
| 20260831214622 | 82 | 322 | 0.0 | 0.0 | 0.00 | 0.03 | 0.03 | 97 | 1016.9 |
| 20260831214118 | 82 | 351 | 1.0 | 2.0 | 0.00 | 0.03 | 0.03 | 97 | 1016.6 |
| 20260831213614 | 82 | 315 | 0.0 | 0.0 | 0.00 | 0.03 | 0.03 | 98 | 1016.7 |
| 20260831213109 | 82 | 313 | 0.0 | 0.0 | 0.00 | 0.03 | 0.03 | 98 | 1016.9 |
| 20260831212605 | 82 | 331 | 0.0 | 0.0 | 0.00 | 0.03 | 0.03 | 98 | 1016.7 |
| 20260831212101 | 82 | 2 | 2.0 | 2.0 | 0.00 | 0.03 | 0.03 | 98 | 1016.6 |
| 20260831211600 | 82 | 323 | 0.0 | 0.0 | 0.00 | 0.03 | 0.03 | 99 | 1017.0 |
| 20260831211100 | 82 | 331 | 2.0 | 2.0 | 0.00 | 0.03 | 0.03 | 99 | 1016.8 |
| 20260831210555 | 82 | 329 | 2.0 | 2.0 | 0.00 | 0.03 | 0.03 | 99 | 1017.0 |
| 20260831210051 | 81 | 327 | 2.0 | 2.0 | 0.00 | 0.03 | 0.03 | 99 | 1016.9 |
| 20260831205545 | 81 | 29 | 1.0 | 1.0 | 0.00 | 0.03 | 0.03 | 99 | 1017.0 |
| 20260831205041 | 81 | 328 | 0.0 | 1.0 | 0.00 | 0.03 | 0.03 | 99 | 1017.1 |
| 20260831204536 | 81 | 351 | 2.0 | 3.0 | 0.00 | 0.03 | 0.03 | 99 | 1016.8 |
| 20260831204034 | 81 | 353 | 3.0 | 5.0 | 0.00 | 0.03 | 0.03 | 99 | 1017.2 |
| 20260831203534 | 82 | 327 | 2.0 | 3.0 | 0.00 | 0.03 | 0.03 | 99 | 1017.2 |
| 20260831203033 | 82 | 341 | 1.0 | 2.0 | 0.00 | 0.03 | 0.03 | 99 | 1017.2 |
| 20260831202527 | 83 | 310 | 0.0 | 0.0 | 0.00 | 0.03 | 0.03 | 99 | 1017.4 |
| 20260831202027 | 83 | 308 | 0.0 | 1.0 | 0.00 | 0.03 | 0.03 | 99 | 1017.3 |
| 20260831201525 | 83 | 343 | 0.0 | 0.0 | 0.00 | 0.03 | 0.03 | 99 | 1017.3 |
| 20260831201021 | 83 | 308 | 0.0 | 0.0 | 0.07 | 0.03 | 0.03 | 99 | 1017.3 |
| 20260831200517 | 83 | 312 | 0.0 | 0.0 | 0.07 | 0.03 | 0.03 | 99 | 1017.1 |
| 20260831200012 | 82 | 312 | 0.0 | 0.0 | 0.00 | 0.02 | 0.02 | 99 | 1017.3 |
| 20260831195508 | 82 | 329 | 0.0 | 0.0 | 0.05 | 0.02 | 0.02 | 99 | 1017.4 |
| 20260831195007 | 82 | 295 | 0.0 | 1.0 | 0.05 | 0.02 | 0.02 | 99 | 1017.4 |
| 20260831194503 | 82 | 327 | 1.0 | 1.0 | 0.00 | 0.01 | 0.01 | 99 | 1017.4 |
| 20260831194002 | 82 | 323 | 0.0 | 0.0 | 0.00 | 0.01 | 0.01 | 99 | 1017.6 |
| 20260831193458 | 82 | 326 | 0.0 | 0.0 | 0.07 | 0.01 | 0.01 | 99 | 1017.6 |
| 20260831192953 | 82 | 328 | 0.0 | 0.0 | 0.07 | 0.01 | 0.01 | 98 | 1017.7 |
| 20260831192448 | 82 | 285 | 0.0 | 0.0 | 0.00 | 0.00 | 0.00 | 98 | 1017.7 |
| 20260831191942 | 82 | 286 | 0.0 | 0.0 | 0.00 | 0.00 | 0.00 | 97 | 1017.5 |
| 20260831191439 | 81 | 287 | 0.0 | 0.0 | 0.00 | 0.00 | 0.00 | 97 | 1017.7 |
| 20260831190935 | 82 | 285 | 0.0 | 0.0 | 0.00 | 0.00 | 0.00 | 97 | 1017.7 |
| 20260831190429 | 82 | 284 | 0.0 | 0.0 | 0.00 | 0.00 | 0.00 | 96 | 1017.8 |
| 20260831185928 | 82 | 281 | 0.0 | 0.0 | 0.00 | 0.00 | 0.00 | 95 | 1017.8 |
| 20260831185424 | 82 | 285 | 0.0 | 0.0 | 0.00 | 0.00 | 0.00 | 94 | 1017.6 |
| 20260831184919 | 83 | 303 | 0.0 | 0.0 | 0.00 | 0.00 | 0.00 | 91 | 1017.5 |
| 20260831184418 | 83 | 311 | 0.0 | 0.0 | 0.00 | 0.00 | 0.00 | 89 | 1017.5 |
| 20260831183914 | 83 | 312 | 0.0 | 0.0 | 0.00 | 0.00 | 0.00 | 90 | 1017.2 |
| 20260831183414 | 82 | 312 | 0.0 | 0.0 | 0.00 | 0.00 | 0.00 | 90 | 1017.1 |
| 20260831182908 | 82 | 284 | 0.0 | 0.0 | 0.00 | 0.00 | 0.00 | 91 | 1017.2 |
| 20260831182403 | 82 | 289 | 0.0 | 0.0 | 0.00 | 0.00 | 0.00 | 92 | 1017.4 |
| 20260831181858 | 82 | 299 | 0.0 | 0.0 | 0.00 | 0.00 | 0.00 | 92 | 1017.5 |
| 20260831181353 | 83 | 285 | 0.0 | 0.0 | 0.00 | 0.00 | 0.00 | 93 | 1017.6 |
| 20260831180848 | 83 | 238 | 0.0 | 1.0 | 0.00 | 0.00 | 0.00 | 92 | 1017.7 |
| 20260831180342 | 83 | 286 | 0.0 | 0.0 | 0.00 | 0.00 | 0.00 | 93 | 1018.1 |
| 20260831175841 | 83 | 280 | 0.0 | 0.0 | 0.00 | 0.00 | 0.00 | 93 | 1018.0 |
| 20260831175338 | 83 | 286 | 1.0 | 1.0 | 0.00 | 0.00 | 0.00 | 93 | 1017.8 |
| 20260831174834 | 83 | 292 | 0.0 | 0.0 | 0.00 | 0.00 | 0.00 | 93 | 1017.8 |
| 20260831174329 | 83 | 303 | 0.0 | 0.0 | 0.00 | 0.00 | 0.00 | 93 | 1017.9 |
| 20260831173828 | 83 | 300 | 0.0 | 0.0 | 0.00 | 0.00 | 0.00 | 93 | 1018.1 |
| 20260831173322 | 83 | 300 | 0.0 | 0.0 | 0.00 | 0.00 | 0.00 | 93 | 1018.0 |
| 20260831172818 | 82 | 301 | 0.0 | 0.0 | 0.00 | 0.00 | 0.00 | 93 | 1018.2 |
| 20260831172313 | 82 | 279 | 0.0 | 0.0 | 0.00 | 0.00 | 0.00 | 93 | 1018.0 |
| 20260831171813 | 82 | 296 | 0.0 | 0.0 | 0.00 | 0.00 | 0.00 | 93 | 1018.1 |
| 20260831171310 | 82 | 303 | 1.0 | 1.0 | 0.00 | 0.00 | 0.00 | 93 | 1018.0 |
| 20260831170806 | 82 | 239 | 1.0 | 1.0 | 0.00 | 0.00 | 0.00 | 91 | 1018.1 |
| 20260831170302 | 83 | 130 | 4.0 | 6.0 | 0.00 | 0.00 | 0.00 | 92 | 1018.2 |
| 20260831165758 | 84 | 211 | 1.0 | 1.0 | 0.00 | 0.00 | 0.00 | 93 | 1018.0 |
| 20260831165255 | 85 | 260 | 0.0 | 0.0 | 0.00 | 0.00 | 0.00 | 93 | 1017.8 |
| 20260831164750 | 86 | 254 | 1.0 | 2.0 | 0.00 | 0.00 | 0.00 | 91 | 1018.0 |
| 20260831164246 | 86 | 296 | 0.0 | 0.0 | 0.00 | 0.00 | 0.00 | 90 | 1017.9 |
| 20260831163742 | 87 | 294 | 0.0 | 1.0 | 0.00 | 0.00 | 0.00 | 90 | 1018.1 |
| 20260831163237 | 87 | 288 | 0.0 | 0.0 | 0.00 | 0.00 | 0.00 | 90 | 1017.7 |
| 20260831162736 | 87 | 323 | 0.0 | 0.0 | 0.00 | 0.00 | 0.00 | 88 | 1018.0 |
| 20260831162235 | 88 | 296 | 1.0 | 1.0 | 0.00 | 0.00 | 0.00 | 86 | 1018.0 |
| 20260831161730 | 89 | 326 | 0.0 | 0.0 | 0.00 | 0.00 | 0.00 | 85 | 1017.9 |
| 20260831161227 | 90 | 313 | 0.0 | 0.0 | 0.00 | 0.00 | 0.00 | 83 | 1018.2 |
| 20260831160726 | 90 | 332 | 0.0 | 1.0 | 0.00 | 0.00 | 0.00 | 82 | 1018.3 |
| 20260831160221 | 90 | 336 | 1.0 | 2.0 | 0.00 | 0.00 | 0.00 | 81 | 1018.2 |
| 20260831155721 | 90 | 335 | 0.0 | 0.0 | 0.00 | 0.00 | 0.00 | 80 | 1018.5 |
| 20260831155217 | 91 | 335 | 0.0 | 1.0 | 0.00 | 0.00 | 0.00 | 81 | 1018.4 |
| 20260831154712 | 92 | 5 | 2.0 | 2.0 | 0.00 | 0.00 | 0.00 | 79 | 1018.4 |
| 20260831154209 | 92 | 287 | 0.0 | 0.0 | 0.00 | 0.00 | 0.00 | 78 | 1018.5 |
| 20260831153707 | 92 | 12 | 0.0 | 0.0 | 0.00 | 0.00 | 0.00 | 79 | 1018.3 |
| 20260831153203 | 93 | 5 | 0.0 | 0.0 | 0.00 | 0.00 | 0.00 | 78 | 1018.4 |
| 20260831152659 | 93 | 99 | 0.0 | 0.0 | 0.00 | 0.00 | 0.00 | 76 | 1018.4 |
| 20260831152154 | 95 | 340 | 1.0 | 1.0 | 0.00 | 0.00 | 0.00 | 75 | 1018.4 |
| 20260831151648 | 95 | 151 | 4.0 | 5.0 | 0.00 | 0.00 | 0.00 | 70 | 1018.3 |
| 20260831151142 | 93 | 29 | 2.0 | 2.0 | 0.00 | 0.00 | 0.00 | 74 | 1018.2 |
| 20260831150638 | 91 | 327 | 1.0 | 2.0 | 0.00 | 0.00 | 0.00 | 77 | 1018.3 |
| 20260831150133 | 93 | 97 | 3.0 | 3.0 | 0.00 | 0.00 | 0.00 | 79 | 1018.4 |
| 20260831145627 | 92 | 178 | 1.0 | 1.0 | 0.00 | 0.00 | 0.00 | 78 | 1018.4 |
| 20260831145124 | 92 | 129 | 4.0 | 5.0 | 0.00 | 0.00 | 0.00 | 81 | 1018.4 |
| 20260831144619 | 91 | 326 | 0.0 | 0.0 | 0.00 | 0.00 | 0.00 | 81 | 1018.3 |
| 20260831144115 | 91 | 110 | 3.0 | 5.0 | 0.00 | 0.00 | 0.00 | 81 | 1018.6 |
| 20260831143614 | 91 | 336 | 0.0 | 1.0 | 0.00 | 0.00 | 0.00 | 82 | 1018.2 |
| 20260831143110 | 93 | 340 | 0.0 | 1.0 | 0.00 | 0.00 | 0.00 | 81 | 1018.3 |
| 20260831142606 | 92 | 137 | 2.0 | 3.0 | 0.00 | 0.00 | 0.00 | 80 | 1018.4 |
| 20260831142101 | 91 | 116 | 2.0 | 3.0 | 0.00 | 0.00 | 0.00 | 83 | 1018.5 |
| 20260831141600 | 91 | 53 | 2.0 | 2.0 | 0.00 | 0.00 | 0.00 | 81 | 1018.2 |
| 20260831141055 | 90 | 4 | 1.0 | 2.0 | 0.00 | 0.00 | 0.00 | 83 | 1018.4 |
| 20260831140549 | 91 | 179 | 2.0 | 2.0 | 0.00 | 0.00 | 0.00 | 82 | 1018.5 |
| 20260831140043 | 90 | 340 | 0.0 | 0.0 | 0.00 | 0.00 | 0.00 | 84 | 1018.3 |
| 20260831135541 | 88 | 340 | 0.0 | 0.0 | 0.00 | 0.00 | 0.00 | 87 | 1018.4 |
| 20260831135037 | 89 | 12 | 0.0 | 1.0 | 0.00 | 0.00 | 0.00 | 85 | 1018.1 |
| 20260831134533 | 89 | 322 | 1.0 | 2.0 | 0.00 | 0.00 | 0.00 | 84 | 1018.4 |
| 20260831134032 | 89 | 339 | 0.0 | 0.0 | 0.00 | 0.00 | 0.00 | 84 | 1018.3 |
| 20260831133521 | 88 | 115 | 3.0 | 5.0 | 0.00 | 0.00 | 0.00 | 84 | 1017.9 |
| 20260831133016 | 88 | 341 | 1.0 | 2.0 | 0.00 | 0.00 | 0.00 | 85 | 1018.1 |
| 20260831132512 | 87 | 347 | 0.0 | 0.0 | 0.00 | 0.00 | 0.00 | 86 | 1018.0 |
| 20260831132011 | 85 | 339 | 0.0 | 1.0 | 0.00 | 0.00 | 0.00 | 91 | 1017.9 |
| 20260831131505 | 85 | 41 | 1.0 | 1.0 | 0.00 | 0.00 | 0.00 | 93 | 1017.9 |
| 20260831131002 | 84 | 344 | 0.0 | 0.0 | 0.00 | 0.00 | 0.00 | 93 | 1017.8 |
| 20260831130457 | 84 | 45 | 0.0 | 0.0 | 0.00 | 0.00 | 0.00 | 94 | 1018.0 |
| 20260831125956 | 84 | 348 | 0.0 | 0.0 | 0.00 | 0.00 | 0.00 | 96 | 1017.8 |
| 20260831125451 | 83 | 329 | 1.0 | 2.0 | 0.00 | 0.00 | 0.00 | 97 | 1017.9 |
| 20260831124947 | 82 | 330 | 0.0 | 0.0 | 0.00 | 0.00 | 0.00 | 99 | 1017.9 |
| 20260831124443 | 82 | 326 | 0.0 | 0.0 | 0.00 | 0.00 | 0.00 | 99 | 1017.8 |
| 20260831123938 | 81 | 331 | 0.0 | 0.0 | 0.00 | 0.00 | 0.00 | 99 | 1017.7 |
| 20260831123437 | 81 | 336 | 0.0 | 1.0 | 0.00 | 0.00 | 0.00 | 99 | 1017.8 |
| 20260831122932 | 81 | 331 | 0.0 | 0.0 | 0.00 | 0.00 | 0.00 | 99 | 1017.7 |
| 20260831122427 | 80 | 333 | 0.0 | 0.0 | 0.00 | 0.00 | 0.00 | 99 | 1017.6 |
| 20260831121922 | 80 | 313 | 0.0 | 0.0 | 0.00 | 0.00 | 0.00 | 99 | 1017.6 |
| 20260831121417 | 80 | 331 | 0.0 | 0.0 | 0.00 | 0.00 | 0.00 | 99 | 1017.6 |
| 20260831120913 | 80 | 340 | 0.0 | 0.0 | 0.00 | 0.00 | 0.00 | 99 | 1017.6 |
| 20260831120407 | 80 | 330 | 0.0 | 0.0 | 0.00 | 0.00 | 0.00 | 99 | 1017.4 |
| 20260831115902 | 79 | 330 | 0.0 | 0.0 | 0.00 | 0.00 | 0.00 | 99 | 1017.3 |
| 20260831115359 | 79 | 330 | 0.0 | 0.0 | 0.00 | 0.00 | 0.00 | 99 | 1017.1 |